Simultaneous Nadir Overpasses (SNOs) Predictions

Prediction of SNOs between TERRA and METOP-C Satellite Orbit:

Table of predicted SNOs for the next 14.0 days since TLE Epoch: 1/9/2025
Index Date (TERRA) Time (TERRA) Lat,Lon (TERRA) SZA (TERRA ) Date (METOP-C) Time (METOP-C) Lat,Lon (METOP-C) SZA (METOP-C ) Distance(km) Time Diff (sec)
1 01/10/2025 22:55:01 45.03, 167.71 72.23 01/10/2025 22:54:47 45.01, 167.86 72.19 11.29 14
2 01/10/2025 23:42:39 -51.30, -22.18 102.89 01/10/2025 23:43:41 -51.30, -22.18 102.96 0.60 62
3 01/13/2025 12:34:56 -45.03, 142.69 108.06 01/13/2025 12:34:29 -44.98, 142.92 108.14 18.85 27
4 01/13/2025 13:23:19 48.19, -48.46 74.37 01/13/2025 13:24:12 48.18, -48.47 74.29 1.66 53
5 01/16/2025 02:14:42 45.00, 117.69 71.59 01/16/2025 02:14:05 44.93, 118.00 71.47 25.40 37
6 01/16/2025 03:03:25 -47.44, -73.77 106.57 01/16/2025 03:04:05 -47.43, -73.69 106.65 5.31 40
7 01/18/2025 15:54:35 -45.05, 92.69 108.76 01/18/2025 15:53:45 -44.99, 93.10 108.88 32.80 50
8 01/18/2025 16:43:20 46.89, -98.96 72.63 01/18/2025 16:43:51 46.85, -98.83 72.51 10.31 31
9 01/21/2025 05:34:20 45.05, 67.71 70.81 01/21/2025 05:33:21 44.97, 68.19 70.66 39.01 59
10 01/21/2025 06:23:25 -46.18,-124.23 108.35 01/21/2025 06:23:44 -46.15,-124.03 108.47 15.95 19



Historial Predications of SNOs between TERRA and METOP-C
